Weather Service Report


086 
ASUS43 KLSX 281807
RWRMO 

WEATHER SUMMARY FOR MISSOURI
NATIONAL WEATHER SERVICE SPRINGFIELD MO
100 PM CDT TUE APR 28 2015

NOTE: "FAIR" INDICATES FEW OR NO CLOUDS BELOW 12,000 FEET WITH NO
       SIGNIFICANT WEATHER AND/OR OBSTRUCTIONS TO VISIBILITY.
       CURRENT SKY AND/OR WEATHER CONDITIONS ARE NOT AVAILABLE FOR
       CHILLICOTHE AND FARMINGTON.

MOZ001>031-035>038-043-044-053-054-281900-
...NORTHERN AND WESTERN MISSOURI...
  
CITY           SKY/WX    TMP DP  RH WIND       PRES   REMARKS
KANSAS CTY INT MOSUNNY   69  39  33 N10       30.13F                  
6HR MIN TEMP:  44; 6HR MAX TEMP:  69;                                

KANSAS C DTWN  SUNNY     71  38  29 N12       30.12F                  
6HR MIN TEMP:  46; 6HR MAX TEMP:  71;                                

LEE'S SUMMIT   MOSUNNY   67  40  37 CALM      30.13F                  
6HR MIN TEMP:  45; 6HR MAX TEMP:  67;                                

ST JOSEPH      SUNNY     70  36  28 NE6       30.13F                  
6HR MIN TEMP:  40; 6HR MAX TEMP:  71;                                

CHILLICOTHE      N/A     70  39  32 N10G17    30.12F                  
6HR MIN TEMP:  43; 6HR MAX TEMP:  71;                                

KIRKSVILLE     SUNNY     69  40  34 NW12      30.12F                  
6HR MIN TEMP:  40; 6HR MAX TEMP:  69;                                

     
$$
MOZ066>068-077>081-088>096-101>105-281900-
...SOUTHWEST MISSOURI...
  
CITY           SKY/WX    TMP DP  RH WIND       PRES   REMARKS
SPRINGFIELD    PTSUNNY   62  40  44 NE10      30.09F                  
6HR MIN TEMP:  41; 6HR MAX TEMP:  62;                                

JOPLIN         PTSUNNY   62  39  42 NE5       30.11F                  
6HR MIN TEMP:  45; 6HR MAX TEMP:  63;                                

               
$$
MOZ032>034-039>042-045>050-055>058-069>072-281900-
...CENTRAL MISSOURI...  
  
CITY           SKY/WX    TMP DP  RH WIND       PRES   REMARKS
COLUMBIA       SUNNY     67  40  37 NE10      30.10F                  
6HR MIN TEMP:  46; 6HR MAX TEMP:  68;                                

JEFFERSON CITY MOSUNNY   67  36  31 N15G21    30.09F                  
6HR MIN TEMP:  41; 6HR MAX TEMP:  68; 6HR PCP: TRACE;                

ROLLA          MOSUNNY   65  40  39 NE17G23   30.06F                  
6HR MIN TEMP:  41; 6HR MAX TEMP:  65;                                

SEDALIA        SUNNY     70  41  34 N12       30.11F                  
6HR MIN TEMP:  45; 6HR MAX TEMP:  70;                                

WHITEMAN AFB   MOSUNNY   68  38  33 N13       30.10F                  
WARRENSBURG    MOSUNNY   68  36  30 N5        30.11F                  
OSAGE BEACH    MOSUNNY   64  37  36 NE10G17   30.08F                  
               
$$
MOZ051-052-059>065-281900-
...EAST CENTRAL MISSOURI...
  
CITY           SKY/WX    TMP DP  RH WIND       PRES   REMARKS
ST LOUIS INTL  MOSUNNY   66  40  38 VRB7      30.08F                  
6HR MIN TEMP:  47; 6HR MAX TEMP:  66;                                

SPIRIT OF STL  MOSUNNY   65  40  39 NE12G18   30.07F                  
ST CHARLES     SUNNY     66  42  41 NE15G23   30.08F                  
6HR MIN TEMP:  43; 6HR MAX TEMP:  66;                                

                   
$$
MOZ072>076-082>087-097>100-106>115-281900-
...SOUTH CENTRAL AND SOUTHEAST MISSOURI...
  
CITY           SKY/WX    TMP DP  RH WIND       PRES   REMARKS
CAPE GIRARDEAU PTSUNNY   62  42  47 NE10      30.04F                  
6HR MIN TEMP:  48; 6HR MAX TEMP:  62;                                

FARMINGTON     MOSUNNY   63  39  42 NE14      30.09F                  
6HR MIN TEMP:  43; 6HR MAX TEMP:  63;                                

POPLAR BLUFF   CLOUDY    60  41  49 NE7       30.06F                  
6HR MIN TEMP:  48; 6HR MAX TEMP:  60;                                

WEST PLAINS    CLOUDY    60  36  40 E9        30.07F                  
6HR MIN TEMP:  43; 6HR MAX TEMP:  61;                                

                                       
$$

Return to Home page


Western Regional Climate Center, wrcc@dri.edu